sampling_time,wmo_synop_id,msc_id,stn_nam,stn_elev,lat,long,stn_typ,date_tm,rpt_typ,result_time,crnt_buoy_lat,crnt_buoy_lat_qa_summary,crnt_buoy_long,crnt_buoy_long_qa_summary,avg_air_temp_pst10mts,avg_air_temp_pst10mts_qa_summary,avg_sea_sfc_temp_pst10mts,avg_sea_sfc_temp_pst10mts_qa_summary,avg_batry_volt_pst10mts,avg_batry_volt_pst10mts_qa_summary,avg_solr_panl_crnt_pst10mts,avg_solr_panl_crnt_pst10mts_qa_summary,avg_wtr_lvl_snsr_volt_pst10mts,avg_wtr_lvl_snsr_volt_pst10mts_qa_summary,avg_wave_hgt_pst20mts,avg_wave_hgt_pst20mts_qa_summary,pk_wave_hgt_pst20mts,pk_wave_hgt_pst20mts_qa_summary,sig_wave_pd_pst20mts,sig_wave_pd_pst20mts_qa_summary,sig_wave_hgt_pst20mts,sig_wave_hgt_pst20mts_qa_summary,avg_max_wave_hgt_pst20mts,avg_max_wave_hgt_pst20mts_qa_summary,avg_max_wave_pd_pst20mts,avg_max_wave_pd_pst20mts_qa_summary,avg_wave_pd_pst20mts,avg_wave_pd_pst20mts_qa_summary,pk_wave_pd_pst20mts,pk_wave_pd_pst20mts_qa_summary,avg_stn_pres_pst10mts,avg_stn_pres_pst10mts_qa_summary,avg_wnd_spd_pst10mts,avg_wnd_spd_pst10mts_qa_summary,avg_wnd_dir_pst10mts,avg_wnd_dir_pst10mts_qa_summary,max_avg_wnd_spd_pst10mts,max_avg_wnd_spd_pst10mts_qa_summary,wnd_snsr_vert_disp,wnd_snsr_vert_disp_qa_summary,pres_tend_amt_pst3hrs,pres_tend_amt_pst3hrs_data_flag,pres_tend_char_pst3hrs,pres_tend_char_pst3hrs_data_flag,avg_mslp_pst10mts,avg_mslp_pst10mts_data_flag,avg_stn_pres_pst10mts_1,avg_stn_pres_pst10mts_2,avg_wnd_spd_pst10mts_1,avg_wnd_spd_pst10mts_2,avg_wnd_dir_pst10mts_1,avg_wnd_dir_pst10mts_2,max_avg_wnd_spd_pst10mts_1,max_avg_wnd_spd_pst10mts_2,wnd_snsr_vert_disp_1,wnd_snsr_vert_disp_2
2020-10-25T00:00:00Z,44490,9300300,West Bay of Fundy,0.0,44.66056,-66.3686,18,2020-10-25T00:00:00.000Z,108,2020-10-25T00:03:54.955Z,44.66265,100,-66.36485,100,11.9,100,11.9,100,12.7,100,0.0,100,3.5,100,0.3,100,0.8,100,8.9,100,0.5,100,0.6,100,10.5,100,5.3,100,11.8,100,1009.6,100,7.9,100,275,100,9.7,100,5.0,100,0.6,1,3,1,1009.6,1,1009.6,1009.6,7.9,7.6,275,278,9.7,9.7,5.0,4.0
2020-10-25T00:10:00Z,44490,9300300,West Bay of Fundy,0.0,44.66056,-66.3686,18,2020-10-25T00:10:00.000Z,110,2020-10-25T00:12:45.603Z,44.66257,100,-66.36522,100,12.5,100,12.4,100,12.7,100,0.0,100,3.5,100,,-1,,-1,,-1,,-1,,-1,,-1,,-1,,-1,1009.8,100,8.3,100,281,100,9.7,100,5.0,100,0.8,1,3,1,1009.8,1,1009.8,1009.7,8.3,8.3,281,286,9.7,9.7,5.0,4.0
2020-10-25T00:20:00Z,44490,9300300,West Bay of Fundy,0.0,44.66056,-66.3686,18,2020-10-25T00:20:00.000Z,110,2020-10-25T00:23:03.178Z,44.66252,100,-66.36537,100,11.9,100,11.8,100,12.7,100,0.0,100,3.5,100,,-1,,-1,,-1,,-1,,-1,,-1,,-1,,-1,1009.8,100,8.6,100,289,100,10.1,100,5.0,100,0.8,1,3,1,1009.8,1,1009.8,1009.7,8.6,9.0,289,293,10.1,10.4,5.0,4.0
2020-10-25T00:30:00Z,44490,9300300,West Bay of Fundy,0.0,44.66056,-66.3686,18,2020-10-25T00:30:00.000Z,110,2020-10-25T00:33:01.176Z,44.66252,100,-66.36555,100,11.9,100,11.8,100,12.7,100,0.0,100,3.5,100,,-1,,-1,,-1,,-1,,-1,,-1,,-1,,-1,1009.8,100,9.0,100,288,100,11.9,100,5.0,100,0.7,1,3,1,1009.8,1,1009.8,1009.8,9.0,9.0,288,292,11.9,11.9,5.0,4.0
2020-10-25T00:40:00Z,44490,9300300,West Bay of Fundy,0.0,44.66056,-66.3686,18,2020-10-25T00:40:00.000Z,110,2020-10-25T00:43:02.550Z,44.66252,100,-66.36572,100,11.9,100,11.8,100,12.7,100,0.0,100,3.5,100,,-1,,-1,,-1,,-1,,-1,,-1,,-1,,-1,1009.8,100,8.6,100,293,100,10.1,100,5.0,100,0.8,1,3,1,1009.8,1,1009.8,1009.8,8.6,8.6,293,297,10.1,10.4,5.0,4.0
2020-10-25T00:50:00Z,44490,9300300,West Bay of Fundy,0.0,44.66056,-66.3686,18,2020-10-25T00:50:00.000Z,110,2020-10-25T00:53:00.428Z,44.66255,100,-66.36591999999999,100,11.9,100,11.8,100,12.7,100,0.0,100,3.5,100,,-1,,-1,,-1,,-1,,-1,,-1,,-1,,-1,1009.9,100,8.6,100,293,100,9.7,100,5.0,100,1.0,1,3,1,1009.9,1,1009.9,1009.9,8.6,8.6,293,297,9.7,10.1,5.0,4.0
2020-10-25T01:00:00Z,44490,9300300,West Bay of Fundy,0.0,44.66056,-66.3686,18,2020-10-25T01:00:00.000Z,108,2020-10-25T01:05:00.129Z,44.6625,100,-66.36578,100,11.9,100,11.8,100,12.7,100,0.0,100,3.5,100,0.3,100,0.8,100,10.5,100,0.5,100,0.6,100,12.2,100,6.2,100,15.4,100,1010.1,100,8.3,100,294,100,9.4,100,5.0,100,1.2,1,3,1,1010.1,1,1010.1,1010.0,8.3,8.3,294,298,9.4,9.4,5.0,4.0
2020-10-25T01:10:00Z,44490,9300300,West Bay of Fundy,0.0,44.66056,-66.3686,18,2020-10-25T01:10:00.000Z,110,2020-10-25T01:16:02.649Z,44.6625,100,-66.36582,100,11.9,100,11.8,100,12.7,100,0.0,100,3.5,100,,-1,,-1,,-1,,-1,,-1,,-1,,-1,,-1,1010.2,100,8.3,100,294,100,9.7,100,5.0,100,1.3,1,3,1,1010.2,1,1010.2,1010.2,8.3,8.3,294,298,9.7,9.7,5.0,4.0
2020-10-25T01:20:00Z,44490,9300300,West Bay of Fundy,0.0,44.66056,-66.3686,18,2020-10-25T01:20:00.000Z,110,2020-10-25T01:23:04.006Z,44.6624,100,-66.36572,100,12.0,100,11.8,100,12.7,100,0.0,100,3.5,100,,-1,,-1,,-1,,-1,,-1,,-1,,-1,,-1,1010.2,100,18.7,100,331,100,41.8,100,5.0,100,1.3,1,3,1,1010.2,1,1010.2,1010.2,18.7,18.0,331,334,41.8,40.0,5.0,4.0
2020-10-25T01:30:00Z,44490,9300300,West Bay of Fundy,0.0,44.66056,-66.3686,18,2020-10-25T01:30:00.000Z,110,2020-10-25T01:33:08.789Z,44.6622,100,-66.36553,100,12.1,100,11.8,100,12.7,100,0.0,100,3.5,100,,-1,,-1,,-1,,-1,,-1,,-1,,-1,,-1,1010.2,100,43.2,100,360,100,54.7,100,5.0,100,1.2,1,3,1,1010.2,1,1010.2,1010.2,43.2,42.1,360,3,54.7,55.1,5.0,4.0
2020-10-25T01:40:00Z,44490,9300300,West Bay of Fundy,0.0,44.66056,-66.3686,18,2020-10-25T01:40:00.000Z,110,2020-10-25T01:43:17.584Z,44.66223,100,-66.36578,100,11.8,100,11.8,100,12.6,100,0.0,100,3.5,100,,-1,,-1,,-1,,-1,,-1,,-1,,-1,,-1,1010.6,100,40.7,100,1,100,49.0,100,5.0,100,1.6,1,3,1,1010.6,1,1010.6,1010.6,40.7,39.2,1,4,49.0,48.2,5.0,4.0
2020-10-25T01:50:00Z,44490,9300300,West Bay of Fundy,0.0,44.66056,-66.3686,18,2020-10-25T01:50:00.000Z,110,2020-10-25T01:53:25.168Z,44.66223,100,-66.36577,100,11.5,100,11.8,100,12.6,100,0.0,100,3.5,100,,-1,,-1,,-1,,-1,,-1,,-1,,-1,,-1,1010.8,100,39.6,100,355,100,47.2,100,5.0,100,1.8,1,3,1,1010.8,1,1010.8,1010.8,39.6,37.4,355,358,47.2,45.7,5.0,4.0
2020-10-25T02:00:00Z,44490,9300300,West Bay of Fundy,0.0,44.66056,-66.3686,18,2020-10-25T02:00:00.000Z,108,2020-10-25T02:03:20.694Z,44.66222,100,-66.36567,100,11.3,100,11.8,100,12.6,100,0.0,100,3.5,100,0.5,100,1.2,100,4.2,100,0.7,100,0.9,100,5.2,100,3.4,100,15.4,100,1011.0,100,40.7,100,353,100,49.0,100,5.0,100,2.0,1,3,1,1011.0,1,1011.0,1011.0,40.7,38.2,353,357,49.0,46.1,5.0,4.0
2020-10-25T02:10:00Z,44490,9300300,West Bay of Fundy,0.0,44.66056,-66.3686,18,2020-10-25T02:10:00.000Z,110,2020-10-25T02:16:21.595Z,44.66225,100,-66.36578,100,11.1,100,11.9,100,12.6,100,0.0,100,3.5,100,,-1,,-1,,-1,,-1,,-1,,-1,,-1,,-1,1011.3,100,39.2,100,356,100,44.6,100,5.0,100,2.1,1,3,1,1011.3,1,1011.3,1011.2,39.2,36.4,356,359,44.6,43.9,5.0,4.0
2020-10-25T02:20:00Z,44490,9300300,West Bay of Fundy,0.0,44.66056,-66.3686,18,2020-10-25T02:20:00.000Z,110,2020-10-25T02:23:23.581Z,44.66227,100,-66.36583,100,10.9,100,11.9,100,12.6,100,0.0,100,3.5,100,,-1,,-1,,-1,,-1,,-1,,-1,,-1,,-1,1011.4,100,38.5,100,354,100,45.4,100,5.0,100,2.3,1,3,1,1011.4,1,1011.4,1011.3,38.5,36.0,354,358,45.4,42.5,5.0,4.0
2020-10-25T02:30:00Z,44490,9300300,West Bay of Fundy,0.0,44.66056,-66.3686,18,2020-10-25T02:30:00.000Z,110,2020-10-25T02:33:23.652Z,44.66222,100,-66.36575,100,10.8,100,11.9,100,12.6,100,0.0,100,3.5,100,,-1,,-1,,-1,,-1,,-1,,-1,,-1,,-1,1011.5,100,38.9,100,354,100,47.9,100,5.0,100,2.2,1,3,1,1011.5,1,1011.5,1011.4,38.9,36.0,354,357,47.9,46.4,5.0,4.0
2020-10-25T02:40:00Z,44490,9300300,West Bay of Fundy,0.0,44.66056,-66.3686,18,2020-10-25T02:40:00.000Z,110,2020-10-25T02:43:27.347Z,44.66217,100,-66.3657,100,10.5,100,11.9,100,12.6,100,0.0,100,3.5,100,,-1,,-1,,-1,,-1,,-1,,-1,,-1,,-1,1011.6,100,42.8,100,355,100,49.7,100,5.0,100,2.1,1,3,1,1011.6,1,1011.6,1011.5,42.8,40.0,355,358,49.7,48.2,5.0,4.0
2020-10-25T02:50:00Z,44490,9300300,West Bay of Fundy,0.0,44.66056,-66.3686,18,2020-10-25T02:50:00.000Z,110,2020-10-25T02:53:26.884Z,44.6622,100,-66.36561999999999,100,10.2,100,11.9,100,12.6,100,0.0,100,3.5,100,,-1,,-1,,-1,,-1,,-1,,-1,,-1,,-1,1011.6,100,42.1,100,355,100,49.7,100,5.0,100,2.1,1,3,1,1011.6,1,1011.6,1011.6,42.1,39.6,355,359,49.7,48.6,5.0,4.0
2020-10-25T03:00:00Z,44490,9300300,West Bay of Fundy,0.0,44.66056,-66.3686,18,2020-10-25T03:00:00.000Z,108,2020-10-25T03:04:22.202Z,44.66217,100,-66.36547,100,10.0,100,11.9,100,12.6,100,0.0,100,3.5,100,0.8,100,1.9,100,4.4,100,1.2,100,1.4,100,4.1,100,3.9,100,4.3,100,1011.9,100,42.8,100,352,100,49.7,100,5.0,100,2.2,1,3,1,1011.9,1,1011.9,1011.8,42.8,39.6,352,355,49.7,46.8,5.0,4.0
2020-10-25T03:10:00Z,44490,9300300,West Bay of Fundy,0.0,44.66056,-66.3686,18,2020-10-25T03:10:00.000Z,110,2020-10-25T03:15:44.525Z,44.66217,100,-66.36535,100,9.9,100,11.9,100,12.6,100,0.0,100,3.5,100,,-1,,-1,,-1,,-1,,-1,,-1,,-1,,-1,1011.9,100,43.2,100,352,100,50.0,100,5.0,100,2.2,1,3,1,1011.9,1,1011.9,1011.9,43.2,40.0,352,355,50.0,48.2,5.0,4.0
2020-10-25T03:20:00Z,44490,9300300,West Bay of Fundy,0.0,44.66056,-66.3686,18,2020-10-25T03:20:00.000Z,110,2020-10-25T03:22:40.985Z,44.6622,100,-66.36542,100,9.8,100,11.9,100,12.6,100,0.0,100,3.5,100,,-1,,-1,,-1,,-1,,-1,,-1,,-1,,-1,1012.0,100,41.8,100,351,100,49.7,100,5.0,100,2.3,1,3,1,1012.0,1,1012.0,1012.0,41.8,38.5,351,354,49.7,47.5,5.0,4.0
2020-10-25T03:30:00Z,44490,9300300,West Bay of Fundy,0.0,44.66056,-66.3686,18,2020-10-25T03:30:00.000Z,110,2020-10-25T03:32:52.335Z,44.66222,100,-66.36553,100,9.5,100,11.9,100,12.6,100,0.0,100,3.5,100,,-1,,-1,,-1,,-1,,-1,,-1,,-1,,-1,1012.1,100,42.8,100,357,100,49.3,100,5.0,100,2.3,1,3,1,1012.1,1,1012.1,1012.1,42.8,40.3,357,360,49.3,49.3,5.0,4.0
2020-10-25T03:40:00Z,44490,9300300,West Bay of Fundy,0.0,44.66056,-66.3686,18,2020-10-25T03:40:00.000Z,110,2020-10-25T03:42:57.033Z,44.66218,100,-66.3654,100,9.4,100,11.9,100,12.6,100,0.0,100,3.5,100,,-1,,-1,,-1,,-1,,-1,,-1,,-1,,-1,1012.2,100,41.8,100,351,100,49.7,100,5.0,100,2.4,1,1,1,1012.2,1,1012.2,1012.2,41.8,38.5,351,355,49.7,49.0,5.0,4.0
2020-10-25T03:50:00Z,44490,9300300,West Bay of Fundy,0.0,44.66056,-66.3686,18,2020-10-25T03:50:00.000Z,110,2020-10-25T03:52:55.177Z,44.66217,100,-66.36542,100,9.1,100,11.9,100,12.5,100,0.0,100,3.5,100,,-1,,-1,,-1,,-1,,-1,,-1,,-1,,-1,1012.2,100,44.3,100,354,100,52.9,100,5.0,100,2.3,1,1,1,1012.2,1,1012.2,1012.2,44.3,41.4,354,357,52.9,52.6,5.0,4.0
2020-10-25T04:00:00Z,44490,9300300,West Bay of Fundy,0.0,44.66056,-66.3686,18,2020-10-25T04:00:00.000Z,108,2020-10-25T04:03:01.219Z,44.66225,100,-66.3655,100,9.1,100,11.8,100,12.5,100,0.0,100,3.5,100,1.0,100,2.2,100,4.8,100,1.5,100,1.8,100,4.7,100,4.2,100,4.4,100,1012.3,100,42.5,100,357,100,50.8,100,5.0,100,2.2,1,1,1,1012.3,1,1012.3,1012.2,42.5,40.0,357,1,50.8,48.2,5.0,4.0
2020-10-25T04:10:00Z,44490,9300300,West Bay of Fundy,0.0,44.66056,-66.3686,18,2020-10-25T04:10:00.000Z,110,2020-10-25T04:15:57.953Z,44.66227,100,-66.36545,100,8.9,100,11.8,100,12.6,100,0.0,100,3.5,100,,-1,,-1,,-1,,-1,,-1,,-1,,-1,,-1,1012.4,100,42.5,100,355,100,52.6,100,5.0,100,2.2,1,1,1,1012.4,1,1012.4,1012.3,42.5,40.0,355,359,52.6,50.8,5.0,4.0
2020-10-25T04:20:00Z,44490,9300300,West Bay of Fundy,0.0,44.66056,-66.3686,18,2020-10-25T04:20:00.000Z,110,2020-10-25T04:23:09.463Z,44.6623,100,-66.36532,100,8.9,100,11.8,100,12.6,100,0.0,100,3.5,100,,-1,,-1,,-1,,-1,,-1,,-1,,-1,,-1,1012.6,100,42.1,100,354,100,53.3,100,5.0,100,2.3,1,1,1,1012.6,1,1012.6,1012.5,42.1,39.6,354,357,53.3,53.6,5.0,4.0
2020-10-25T04:30:00Z,44490,9300300,West Bay of Fundy,0.0,44.66056,-66.3686,18,2020-10-25T04:30:00.000Z,110,2020-10-25T04:33:10.560Z,44.66233,100,-66.3651,100,8.8,100,11.8,100,12.6,100,0.0,100,3.5,100,,-1,,-1,,-1,,-1,,-1,,-1,,-1,,-1,1012.7,100,42.5,100,357,100,51.5,100,5.0,100,2.5,1,1,1,1012.7,1,1012.7,1012.6,42.5,40.3,357,0,51.5,50.0,5.0,4.0
2020-10-25T04:40:00Z,44490,9300300,West Bay of Fundy,0.0,44.66056,-66.3686,18,2020-10-25T04:40:00.000Z,110,2020-10-25T04:43:11.057Z,44.6623,100,-66.36522,100,8.7,100,11.8,100,12.5,100,0.0,100,3.5,100,,-1,,-1,,-1,,-1,,-1,,-1,,-1,,-1,1012.7,100,42.1,100,1,100,51.1,100,5.0,100,2.1,1,1,1,1012.7,1,1012.7,1012.6,42.1,40.0,1,5,51.1,49.0,5.0,4.0
2020-10-25T04:50:00Z,44490,9300300,West Bay of Fundy,0.0,44.66056,-66.3686,18,2020-10-25T04:50:00.000Z,110,2020-10-25T04:53:16.124Z,44.66238,100,-66.36518000000001,100,8.7,100,11.8,100,12.5,100,0.0,100,3.5,100,,-1,,-1,,-1,,-1,,-1,,-1,,-1,,-1,1012.8,100,41.0,100,4,100,49.0,100,5.0,100,2.0,1,1,1,1012.8,1,1012.8,1012.7,41.0,39.2,4,7,49.0,47.2,5.0,4.0
2020-10-25T05:00:00Z,44490,9300300,West Bay of Fundy,0.0,44.66056,-66.3686,18,2020-10-25T05:00:00.000Z,108,2020-10-25T05:03:27.144Z,44.66247,100,-66.36516999999999,100,8.5,100,11.8,100,12.5,100,0.0,100,3.5,100,1.0,100,2.6,100,4.9,100,1.5,100,1.9,100,4.8,100,4.3,100,5.4,100,1012.8,100,41.4,100,4,100,48.6,100,5.0,100,1.7,1,1,1,1012.8,1,1012.8,1012.7,41.4,40.0,4,7,48.6,47.9,5.0,4.0
2020-10-25T05:10:00Z,44490,9300300,West Bay of Fundy,0.0,44.66056,-66.3686,18,2020-10-25T05:10:00.000Z,110,2020-10-25T05:16:14.165Z,44.66252,100,-66.36513000000001,100,8.5,100,11.8,100,12.5,100,0.0,100,3.5,100,,-1,,-1,,-1,,-1,,-1,,-1,,-1,,-1,1012.9,100,41.4,100,8,100,49.7,100,5.0,100,1.6,1,1,1,1012.9,1,1012.9,1012.8,41.4,39.6,8,11,49.7,47.5,5.0,4.0
2020-10-25T05:20:00Z,44490,9300300,West Bay of Fundy,0.0,44.66056,-66.3686,18,2020-10-25T05:20:00.000Z,110,2020-10-25T05:23:15.997Z,44.66258,100,-66.36482,100,8.4,100,11.8,100,12.5,100,0.0,100,3.5,100,,-1,,-1,,-1,,-1,,-1,,-1,,-1,,-1,1013.0,100,41.4,100,2,100,49.3,100,5.0,100,1.6,1,1,1,1013.0,1,1013.0,1013.0,41.4,40.0,2,5,49.3,47.9,5.0,4.0
2020-10-25T05:30:00Z,44490,9300300,West Bay of Fundy,0.0,44.66056,-66.3686,18,2020-10-25T05:30:00.000Z,110,2020-10-25T05:33:15.926Z,44.66275,100,-66.36453,100,8.4,100,11.7,100,12.5,100,0.0,100,3.5,100,,-1,,-1,,-1,,-1,,-1,,-1,,-1,,-1,1013.3,100,41.4,100,358,100,49.3,100,5.0,100,1.8,1,2,1,1013.3,1,1013.3,1013.3,41.4,39.6,358,1,49.3,47.5,5.0,4.0
2020-10-25T05:40:00Z,44490,9300300,West Bay of Fundy,0.0,44.66056,-66.3686,18,2020-10-25T05:40:00.000Z,110,2020-10-25T05:43:29.000Z,44.66307000000001,100,-66.36415,100,8.1,100,11.7,100,12.5,100,0.0,100,3.5,100,,-1,,-1,,-1,,-1,,-1,,-1,,-1,,-1,1013.5,100,41.0,100,356,100,48.6,100,5.0,100,2.0,1,3,1,1013.5,1,1013.5,1013.5,41.0,39.2,356,359,48.6,47.5,5.0,4.0
2020-10-25T05:50:00Z,44490,9300300,West Bay of Fundy,0.0,44.66056,-66.3686,18,2020-10-25T05:50:00.000Z,110,2020-10-25T05:53:29.207Z,44.66365,100,-66.36357,100,7.9,100,11.7,100,12.5,100,0.0,100,3.5,100,,-1,,-1,,-1,,-1,,-1,,-1,,-1,,-1,1013.7,100,41.4,100,356,100,50.0,100,5.0,100,2.1,1,3,1,1013.7,1,1013.7,1013.7,41.4,39.6,356,358,50.0,47.9,5.0,4.0
2020-10-25T06:00:00Z,44490,9300300,West Bay of Fundy,0.0,44.66056,-66.3686,18,2020-10-25T06:00:00.000Z,108,2020-10-25T06:03:34.965Z,44.6645,100,-66.36335,100,7.8,100,11.7,100,12.5,100,0.0,100,3.5,100,1.0,100,2.7,100,4.9,100,1.6,100,2.0,100,5.0,100,4.4,100,5.1,100,1013.9,100,41.8,100,357,100,48.6,100,5.0,100,2.0,1,3,1,1013.9,1,1013.9,1013.8,41.8,40.0,357,360,48.6,46.8,5.0,4.0
2020-10-25T06:10:00Z,44490,9300300,West Bay of Fundy,0.0,44.66056,-66.3686,18,2020-10-25T06:10:00.000Z,110,2020-10-25T06:16:31.296Z,44.665079999999996,100,-66.36352,100,7.6,100,11.7,100,12.5,100,0.0,100,3.5,100,,-1,,-1,,-1,,-1,,-1,,-1,,-1,,-1,1014.0,100,41.0,100,358,100,52.2,100,5.0,100,2.1,1,3,1,1014.0,1,1014.0,1014.0,41.0,40.0,358,0,52.2,50.4,5.0,4.0
2020-10-25T06:20:00Z,44490,9300300,West Bay of Fundy,0.0,44.66056,-66.3686,18,2020-10-25T06:20:00.000Z,110,2020-10-25T06:23:32.827Z,44.6653,100,-66.36368,100,7.5,100,11.7,100,12.5,100,0.0,100,3.5,100,,-1,,-1,,-1,,-1,,-1,,-1,,-1,,-1,1014.1,100,40.3,100,357,100,48.2,100,5.0,100,2.0,1,3,1,1014.1,1,1014.1,1014.0,40.3,39.2,357,0,48.2,47.5,5.0,4.0
2020-10-25T06:30:00Z,44490,9300300,West Bay of Fundy,0.0,44.66056,-66.3686,18,2020-10-25T06:30:00.000Z,110,2020-10-25T06:33:33.751Z,44.66542000000001,100,-66.36378,100,7.4,100,11.6,100,12.5,100,0.0,100,3.5,100,,-1,,-1,,-1,,-1,,-1,,-1,,-1,,-1,1014.1,100,39.6,100,2,100,46.1,100,5.0,100,2.0,1,3,1,1014.1,1,1014.1,1014.1,39.6,38.5,2,4,46.1,45.7,5.0,4.0
2020-10-25T06:40:00Z,44490,9300300,West Bay of Fundy,0.0,44.66056,-66.3686,18,2020-10-25T06:40:00.000Z,110,2020-10-25T06:43:39.689Z,44.66555,100,-66.36392,100,7.4,100,11.6,100,12.5,100,0.0,100,3.5,100,,-1,,-1,,-1,,-1,,-1,,-1,,-1,,-1,1014.4,100,37.8,100,360,100,47.5,100,5.0,100,2.2,1,3,1,1014.4,1,1014.4,1014.4,37.8,37.1,360,2,47.5,46.1,5.0,4.0
2020-10-25T06:50:00Z,44490,9300300,West Bay of Fundy,0.0,44.66056,-66.3686,18,2020-10-25T06:50:00.000Z,110,2020-10-25T06:52:38.127Z,44.66555,100,-66.36393000000001,100,7.2,100,11.6,100,12.5,100,0.0,100,3.5,100,,-1,,-1,,-1,,-1,,-1,,-1,,-1,,-1,1014.6,100,38.2,100,360,100,46.1,100,5.0,100,2.4,1,3,1,1014.6,1,1014.6,1014.5,38.2,37.8,360,2,46.1,46.1,5.0,4.0
2020-10-25T07:00:00Z,44490,9300300,West Bay of Fundy,0.0,44.66056,-66.3686,18,2020-10-25T07:00:00.000Z,108,2020-10-25T07:03:22.442Z,44.66553,100,-66.36397,100,7.2,100,11.6,100,12.5,100,0.0,100,3.5,100,1.0,100,2.4,100,5.4,100,1.5,100,1.8,100,5.2,100,4.7,100,5.4,100,1014.8,100,37.8,100,0,100,47.2,100,5.0,100,2.5,1,3,1,1014.8,1,1014.8,1014.8,37.8,37.4,0,3,47.2,46.1,5.0,4.0
2020-10-25T07:10:00Z,44490,9300300,West Bay of Fundy,0.0,44.66056,-66.3686,18,2020-10-25T07:10:00.000Z,110,2020-10-25T07:15:39.506Z,44.66555,100,-66.3639,100,7.1,100,11.6,100,12.5,100,0.0,100,3.5,100,,-1,,-1,,-1,,-1,,-1,,-1,,-1,,-1,1014.8,100,36.7,100,359,100,47.2,100,5.0,100,2.4,1,3,1,1014.8,1,1014.8,1014.8,36.7,36.7,359,2,47.2,46.4,5.0,4.0
2020-10-25T07:20:00Z,44490,9300300,West Bay of Fundy,0.0,44.66056,-66.3686,18,2020-10-25T07:20:00.000Z,110,2020-10-25T07:22:42.252Z,44.66558,100,-66.36392,100,6.9,100,11.5,100,12.5,100,0.0,100,3.5,100,,-1,,-1,,-1,,-1,,-1,,-1,,-1,,-1,1014.8,100,37.1,100,360,100,45.4,100,5.0,100,2.3,1,3,1,1014.8,1,1014.8,1014.8,37.1,37.1,360,2,45.4,45.7,5.0,4.0
2020-10-25T07:30:00Z,44490,9300300,West Bay of Fundy,0.0,44.66056,-66.3686,18,2020-10-25T07:30:00.000Z,110,2020-10-25T07:32:55.153Z,44.66557,100,-66.36386999999999,100,6.9,100,11.5,100,12.5,100,0.0,100,3.5,100,,-1,,-1,,-1,,-1,,-1,,-1,,-1,,-1,1015.0,100,35.6,100,1,100,42.5,100,5.0,100,2.3,1,3,1,1015.0,1,1015.0,1014.9,35.6,35.6,1,3,42.5,42.8,5.0,4.0
2020-10-25T07:40:00Z,44490,9300300,West Bay of Fundy,0.0,44.66056,-66.3686,18,2020-10-25T07:40:00.000Z,110,2020-10-25T07:42:54.611Z,44.66553,100,-66.36378,100,6.8,100,11.5,100,12.5,100,0.0,100,3.5,100,,-1,,-1,,-1,,-1,,-1,,-1,,-1,,-1,1015.1,100,36.7,100,359,100,45.4,100,5.0,100,2.4,1,1,1,1015.1,1,1015.1,1015.0,36.7,37.1,359,1,45.4,44.6,5.0,4.0
2020-10-25T07:50:00Z,44490,9300300,West Bay of Fundy,0.0,44.66056,-66.3686,18,2020-10-25T07:50:00.000Z,110,2020-10-25T07:53:00.944Z,44.66553,100,-66.36373,100,6.7,100,11.5,100,12.5,100,0.0,100,3.5,100,,-1,,-1,,-1,,-1,,-1,,-1,,-1,,-1,1015.1,100,36.7,100,1,100,47.9,100,5.0,100,2.4,1,1,1,1015.1,1,1015.1,1015.1,36.7,37.1,1,3,47.9,47.5,5.0,4.0
2020-10-25T08:00:00Z,44490,9300300,West Bay of Fundy,0.0,44.66056,-66.3686,18,2020-10-25T08:00:00.000Z,108,2020-10-25T08:02:56.143Z,44.66552,100,-66.36363,100,6.5,100,11.5,100,12.5,100,0.0,100,3.5,100,1.0,100,2.3,100,5.1,100,1.4,100,1.8,100,5.2,100,4.7,100,5.3,100,1015.3,100,36.4,100,2,100,45.0,100,5.0,100,2.5,1,1,1,1015.3,1,1015.3,1015.2,36.4,36.7,2,4,45.0,44.6,5.0,4.0
2020-10-25T08:10:00Z,44490,9300300,West Bay of Fundy,0.0,44.66056,-66.3686,18,2020-10-25T08:10:00.000Z,110,2020-10-25T08:16:11.236Z,44.6655,100,-66.36362,100,6.5,100,11.5,100,12.5,100,0.0,100,3.5,100,,-1,,-1,,-1,,-1,,-1,,-1,,-1,,-1,1015.4,100,36.7,100,360,100,46.4,100,5.0,100,2.5,1,1,1,1015.4,1,1015.4,1015.4,36.7,37.1,360,2,46.4,45.4,5.0,4.0
2020-10-25T08:20:00Z,44490,9300300,West Bay of Fundy,0.0,44.66056,-66.3686,18,2020-10-25T08:20:00.000Z,110,2020-10-25T08:23:08.660Z,44.66547,100,-66.3636,100,6.5,100,11.5,100,12.5,100,0.0,100,3.5,100,,-1,,-1,,-1,,-1,,-1,,-1,,-1,,-1,1015.7,100,38.5,100,358,100,48.2,100,5.0,100,2.7,1,1,1,1015.7,1,1015.7,1015.6,38.5,38.9,358,360,48.2,47.5,5.0,4.0
2020-10-25T08:30:00Z,44490,9300300,West Bay of Fundy,0.0,44.66056,-66.3686,18,2020-10-25T08:30:00.000Z,110,2020-10-25T08:33:12.438Z,44.66545,100,-66.36355,100,6.3,100,11.5,100,12.5,100,0.0,100,3.5,100,,-1,,-1,,-1,,-1,,-1,,-1,,-1,,-1,1015.9,100,40.3,100,359,100,51.1,100,5.0,100,2.6,1,3,1,1015.9,1,1015.9,1015.9,40.3,40.3,359,1,51.1,49.3,5.0,4.0
2020-10-25T08:40:00Z,44490,9300300,West Bay of Fundy,0.0,44.66056,-66.3686,18,2020-10-25T08:40:00.000Z,110,2020-10-25T08:43:10.410Z,44.6654,100,-66.36348000000001,100,6.2,100,11.5,100,12.5,100,0.0,100,3.5,100,,-1,,-1,,-1,,-1,,-1,,-1,,-1,,-1,1016.1,100,41.4,100,0,100,51.1,100,5.0,100,2.6,1,3,1,1016.1,1,1016.1,1016.1,41.4,41.4,0,3,51.1,50.0,5.0,4.0
2020-10-25T08:50:00Z,44490,9300300,West Bay of Fundy,0.0,44.66056,-66.3686,18,2020-10-25T08:50:00.000Z,110,2020-10-25T08:53:16.413Z,44.6654,100,-66.36345,100,6.1,100,11.5,100,12.5,100,0.0,100,3.5,100,,-1,,-1,,-1,,-1,,-1,,-1,,-1,,-1,1016.2,100,45.0,100,358,100,55.1,100,5.0,100,2.5,1,3,1,1016.2,1,1016.2,1016.2,45.0,44.6,358,0,55.1,54.0,5.0,4.0
2020-10-25T09:00:00Z,44490,9300300,West Bay of Fundy,0.0,44.66056,-66.3686,18,2020-10-25T09:00:00.000Z,108,2020-10-25T09:03:39.565Z,44.66537,100,-66.3634,100,6.0,100,11.5,100,12.5,100,0.0,100,3.5,100,0.9,100,2.3,100,5.0,100,1.4,100,1.7,100,5.0,100,4.4,100,5.3,100,1016.3,100,48.2,100,4,100,60.8,100,5.0,100,2.4,1,2,1,1016.3,1,1016.3,1016.2,48.2,47.5,4,6,60.8,61.2,5.0,4.0
2020-10-25T09:10:00Z,44490,9300300,West Bay of Fundy,0.0,44.66056,-66.3686,18,2020-10-25T09:10:00.000Z,110,2020-10-25T09:16:28.865Z,44.66538,100,-66.36345,100,6.0,100,11.5,100,12.5,100,0.0,100,3.5,100,,-1,,-1,,-1,,-1,,-1,,-1,,-1,,-1,1016.4,100,44.3,100,1,100,56.9,100,5.0,100,2.4,1,3,1,1016.4,1,1016.4,1016.4,44.3,43.9,1,4,56.9,55.4,5.0,4.0
2020-10-25T09:20:00Z,44490,9300300,West Bay of Fundy,0.0,44.66056,-66.3686,18,2020-10-25T09:20:00.000Z,110,2020-10-25T09:23:31.130Z,44.66537,100,-66.36345,100,5.7,100,11.5,100,12.5,100,0.0,100,3.5,100,,-1,,-1,,-1,,-1,,-1,,-1,,-1,,-1,1016.6,100,43.2,100,357,100,52.6,100,5.0,100,2.5,1,3,1,1016.6,1,1016.6,1016.6,43.2,42.8,357,359,52.6,51.1,5.0,4.0
2020-10-25T09:30:00Z,44490,9300300,West Bay of Fundy,0.0,44.66056,-66.3686,18,2020-10-25T09:30:00.000Z,110,2020-10-25T09:33:32.745Z,44.66538,100,-66.36345,100,5.4,100,11.5,100,12.5,100,0.0,100,3.5,100,,-1,,-1,,-1,,-1,,-1,,-1,,-1,,-1,1016.7,100,40.7,100,357,100,50.4,100,5.0,100,2.5,1,2,1,1016.7,1,1016.7,1016.6,40.7,40.3,357,360,50.4,48.2,5.0,4.0
2020-10-25T09:40:00Z,44490,9300300,West Bay of Fundy,0.0,44.66056,-66.3686,18,2020-10-25T09:40:00.000Z,110,2020-10-25T09:43:30.687Z,44.66538,100,-66.36348000000001,100,5.3,100,11.5,100,12.5,100,0.0,100,3.5,100,,-1,,-1,,-1,,-1,,-1,,-1,,-1,,-1,1016.8,100,38.5,100,1,100,47.5,100,5.0,100,2.4,1,2,1,1016.8,1,1016.8,1016.7,38.5,38.2,1,4,47.5,46.4,5.0,4.0
2020-10-25T09:50:00Z,44490,9300300,West Bay of Fundy,0.0,44.66056,-66.3686,18,2020-10-25T09:50:00.000Z,110,2020-10-25T09:53:39.482Z,44.66535,100,-66.36345,100,5.3,100,11.5,100,12.5,100,0.0,100,3.5,100,,-1,,-1,,-1,,-1,,-1,,-1,,-1,,-1,1016.8,100,36.7,100,1,100,43.6,100,5.0,100,2.3,1,2,1,1016.8,1,1016.8,1016.8,36.7,36.7,1,3,43.6,42.8,5.0,4.0
2020-10-25T10:00:00Z,44490,9300300,West Bay of Fundy,0.0,44.66056,-66.3686,18,2020-10-25T10:00:00.000Z,108,2020-10-25T10:03:30.821Z,44.66537,100,-66.36353000000001,100,5.3,100,11.5,100,12.5,100,0.0,100,3.5,100,1.0,100,2.6,100,5.1,100,1.6,100,2.0,100,5.0,100,4.6,100,5.4,100,1017.2,100,34.2,100,11,100,43.2,100,5.0,100,2.4,1,3,1,1017.2,1,1017.2,1017.1,34.2,34.2,11,13,43.2,43.2,5.0,4.0
2020-10-25T10:10:00Z,44490,9300300,West Bay of Fundy,0.0,44.66056,-66.3686,18,2020-10-25T10:10:00.000Z,110,2020-10-25T10:15:34.492Z,44.66533,100,-66.36355,100,5.1,100,11.5,100,12.5,100,0.0,100,3.5,100,,-1,,-1,,-1,,-1,,-1,,-1,,-1,,-1,1017.3,100,36.4,100,5,100,44.3,100,5.0,100,2.5,1,3,1,1017.3,1,1017.3,1017.3,36.4,36.0,5,7,44.3,43.9,5.0,4.0
2020-10-25T10:20:00Z,44490,9300300,West Bay of Fundy,0.0,44.66056,-66.3686,18,2020-10-25T10:20:00.000Z,110,2020-10-25T10:22:43.459Z,44.66528,100,-66.36355,100,5.2,100,11.5,100,12.5,100,0.0,100,3.5,100,,-1,,-1,,-1,,-1,,-1,,-1,,-1,,-1,1017.6,100,36.0,100,2,100,44.6,100,5.0,100,2.7,1,3,1,1017.6,1,1017.6,1017.5,36.0,36.0,2,5,44.6,43.9,5.0,4.0